Regional Weather Roundup
Issued by NWS

Home | Current Version | Previous Version | Text Only | Print | Product List | Glossary Off
Versions: 1 2 3 4 5 6 7 8 9 10 11 12 13 14 15 16 17 18 19 20 21 22 23 24 25 26 27 28 29 30 31 32 33 34 35 36 37 38 39 40 41 42 43 44 45 46 47 48 49 50

185
ASUS43 KOAX 261710
RWRNE

WEATHER ROUNDUP FOR NEBRASKA
NATIONAL WEATHER SERVICE OMAHA NE
1100 AM CST SUN FEB 26 2017

NOTES: SATELLITE DATA IS BEING USED TO AUGMENT CLOUD COVER ABOVE
       12000 FEET.
       "FAIR" INDICATES FEW OR NO CLOUDS BELOW 12,000 FEET WITH NO
       SIGNIFICANT WEATHER AND/OR OBSTRUCTIONS TO VISIBILITY.

  * THESE STATIONS DO NOT REPORT WEATHER SUCH AS RAIN...SNOW OR FOG.

NEZ001>004-019>022-054>056-261800-
NEBRASKA PANHANDLE

CITY           SKY/WX    TMP DP  RH WIND       PRES   REMARKS
SCOTTSBLUFF    SUNNY     20   7  57 NW5       29.87R WCI  13
ALLIANCE       SUNNY     13   6  74 W10       29.84R WCI   0
CHADRON        SUNNY     19   7  59 SW9       29.86S WCI   8
KIMBALL        SUNNY     26  11  52 NW12      29.83S WCI  16
SIDNEY         SUNNY     27  11  51 NW14      29.86R WCI  16
$$

NEZ057>060-069>072-079>082-261800-
SOUTHWEST NEBRASKA

CITY           SKY/WX    TMP DP  RH WIND       PRES   REMARKS
NORTH PLATTE   SUNNY     31  14  49 W12       29.92R WCI  22
IMPERIAL       SUNNY     32  12  43 NW12      29.93R WCI  23
LEXINGTON      SUNNY     33  15  48 NW10      29.93R WCI  25
MCCOOK         SUNNY     37  12  35 W16       29.94R WCI  28
OGALLALA       SUNNY     32  15  50 NW15G23   29.90R WCI  21
$$

NEZ005>010-023>029-035>040-094-261800-
NORTH CENTRAL NEBRASKA

CITY           SKY/WX    TMP DP  RH WIND       PRES   REMARKS
VALENTINE      SUNNY     22  10  60 W15       29.86S WCI   9
AINSWORTH      SUNNY     26  16  65 W7        29.87R WCI  18
BROKEN BOW     SUNNY     28  14  55 W12       29.90R WCI  18
O`NEILL        SUNNY     28  16  60 W7        29.90R WCI  20
ORD            SUNNY     30  14  51 N6        29.90S WCI  24
THEDFORD       SUNNY     25  13  59 W6        29.89R WCI  18
$$

NEZ041-046>049-061>064-073>077-083>087-261800-
SOUTH CENTRAL NEBRASKA

CITY           SKY/WX    TMP DP  RH WIND       PRES   REMARKS
GRAND ISLAND   SUNNY     35  20  54 NW9       29.94R WCI  28
AURORA         SUNNY     35  20  54 W8        29.93S WCI  28
HASTINGS       SUNNY     37  18  46 W9        29.95R WCI  30
HEBRON         SUNNY     42  19  38 W10       29.97S
HOLDREGE       SUNNY     37  11  35 W8        29.93S WCI  30
KEARNEY *      SUNNY     36  14  41 W6        29.94R WCI  31
YORK           SUNNY     36  23  60 W7        29.94S WCI  30
$$

NEZ011>018-030>034-042>045-261800-
NORTHEAST NEBRASKA

CITY           SKY/WX    TMP DP  RH WIND       PRES   REMARKS
NORFOLK        SUNNY     27  15  61 W8        29.91R WCI  19
ALBION         SUNNY     31  16  54 NW9       29.92R WCI  23
BLAIR          SUNNY     34  21  59 W7        29.94R WCI  27
FREMONT        SUNNY     33  23  66 W12       29.96R WCI  24
TEKAMAH        SUNNY     30  17  58 W9        29.95R WCI  22
WAYNE          SUNNY     28  18  67 W8        29.92R WCI  20
$$

NEZ050>053-065>068-078-088>093-261800-
SOUTHEAST NEBRASKA

CITY           SKY/WX    TMP DP  RH WIND       PRES   REMARKS
LINCOLN        SUNNY     38  20  48 W8        29.98R WCI  32
OMAHA EPPLEY   SUNNY     38  19  46 W7        29.96R WCI  33
BEATRICE       SUNNY     44  23  44 W12       29.97S
FALLS CITY     SUNNY     47  34  60 S15       29.97S
NEBRASKA CITY  SUNNY     44  22  42 SW13      29.96S
PLATTSMOUTH    SUNNY     38  20  48 W9        29.95S WCI  32
$$

NEZ044-045-051>053-067-261800-
OMAHA AREA

CITY           SKY/WX    TMP DP  RH WIND       PRES   REMARKS
OMAHA EPPLEY   SUNNY     38  19  46 W7        29.96R WCI  33
BLAIR          SUNNY     34  21  59 W7        29.94R WCI  27
FREMONT        SUNNY     33  23  66 W12       29.96R WCI  24
MILLARD        SUNNY     38  21  51 W3        29.96R
OFFUTT AFB     SUNNY     38  19  46 W12       29.95R WCI  31
PLATTSMOUTH    SUNNY     38  20  48 W9        29.95S WCI  32
WAHOO          FAIR      34  20  56 W10       29.95R WCI  26
$$




USA.gov is the U.S. government's official web portal to all federal, state and local government web resources and services.